Location: Alpha Ridge Park
(39.3209°N, 76.9128°W)
Time: 23:44:24
(UTC-04:00)

S-56A Canister/Altair - Pass Details

Date: 25 May 2019
Orbit: 633 x 2499 km, 38.9° (Epoch: 23 June)

Event Time Altitude Azimuth Distance (km) Brightness Sun altitude
Rises 09:17:04 0° 280° (W) 5,003 11.2 38.4°
Reaches altitude 10° 09:21:01 10° 266° (W) 4,296 11.0 39.2°
Maximum altitude 09:29:35 23° 221° (SW) 3,814 11.0 40.8°
Drops below altitude 10° 09:39:40 10° 177° (S) 5,104 11.9 42.8°
Sets 09:45:04 0° 164° (SSE) 6,164 12.4 43.8°
